Weather History for Covington, KY

Change the Weather History Date:

Saturday, November 2, 2013

  Actual Average Record
Temperature  
Mean Temperature 49 °F 50 °F  
Max Temperature 58 °F 60 °F 81 °F (1987)
Min Temperature 40 °F 41 °F 23 °F (1951)
Degree Days  
Heating Degree Days 16 15  
Month to date heating degree days 24 29  
Since 1 July heating degree days 357 391  
Cooling Degree Days 0 0  
Month to date cooling degree days 0 0  
Year to date cooling degree days 1150 1121  
Moisture  
Dew Point 39 °F    
Average Humidity 72    
Maximum Humidity 96    
Minimum Humidity 47    
Precipitation  
Precipitation 0.00 in 0.12 in 1.52 in (1928)
Month to date precipitation T 0.24  
Year to date precipitation 42.38 35.96  
Snow  
Snow 0.00 in 0.00 in 8.70 in (1966)
Month to date snowfall 0.0 0.0  
Since 1 July snowfall T 0.4  
Since 1 September snowfall T 0.4  
Snow Depth 0.00 in    
Sea Level Pressure  
Sea Level Pressure 29.88 in    
Wind  
Wind Speed 9 mph (West)    
Max Wind Speed 22 mph    
Max Gust Speed 26 mph    
Visibility 10 miles    
Events      
T = Trace of Precipitation, MM = Missing Value Source: NWS Daily Summary

Daily Weather History Graph

Daily Weather History Graph

Search for Another Location

Airport:

Trip Planner

Search our weather history database for the weather conditions in past years. The results will help you decide how hot, cold, wet, or windy it might be!

Date:

Astronomy

Nov. 02, 2013 Rise Set
Actual Time 8:07 AM EDT 6:36 PM EDT
Civil Twilight 7:39 AM EDT 7:04 PM EDT
Nautical Twilight 7:08 AM EDT 7:35 PM EDT
Astronomical Twilight 6:36 AM EDT 8:06 PM EDT
Moon 7:04 AM EDT 6:07 PM EDT
Length of Visible Light 11h 24m
Length of Day
10h 28m
Waning Crescent, 1% of the Moon is Illuminated
Nov 2
Waning Crescent
Nov 3
New
Nov 10
First Quarter
Nov 17
Full
Nov 25
Last Quarter

Hourly Weather History & Observations

Time (EDT) Temp. Windchill Dew Point Humidity Pressure Visibility Wind Dir Wind Speed Gust Speed Precip Events Conditions
12:52 AM 52.0 °F - 41.0 °F 66% 29.75 in 10.0 mi WNW 6.9 mph - N/A   Overcast
1:52 AM 51.1 °F - 41.0 °F 68% 29.76 in 10.0 mi West 9.2 mph - N/A   Overcast
2:52 AM 48.9 °F - 39.9 °F 71% 29.76 in 10.0 mi West 6.9 mph - N/A   Overcast
3:52 AM 48.9 °F - 41.0 °F 74% 29.76 in 10.0 mi WSW 5.8 mph - N/A   Overcast
4:52 AM 46.9 °F - 39.9 °F 77% 29.77 in 10.0 mi West 8.1 mph - N/A   Scattered Clouds
5:52 AM 46.9 °F - 41.0 °F 80% 29.78 in 10.0 mi West 5.8 mph - N/A   Overcast
6:52 AM 45.0 °F 43.5 °F 41.0 °F 86% 29.80 in 10.0 mi SW 3.5 mph - N/A   Scattered Clouds
7:45 AM 44.6 °F 41.4 °F 41.0 °F 87% 29.82 in 10.0 mi SW 5.8 mph - N/A   Mostly Cloudy
7:52 AM 44.1 °F 40.1 °F 41.0 °F 89% 29.82 in 10.0 mi SW 6.9 mph - N/A   Mostly Cloudy
8:19 AM 44.6 °F 40.7 °F 39.2 °F 81% 29.83 in 10.0 mi WSW 6.9 mph - N/A   Mostly Cloudy
8:52 AM 43.0 °F 39.5 °F 41.0 °F 93% 29.85 in 10.0 mi WSW 5.8 mph - N/A   Mostly Cloudy
9:52 AM 46.0 °F 42.5 °F 42.1 °F 86% 29.86 in 10.0 mi West 6.9 mph - N/A   Mostly Cloudy
10:52 AM 48.9 °F - 42.1 °F 77% 29.87 in 10.0 mi West 9.2 mph - N/A   Mostly Cloudy
11:52 AM 51.1 °F - 42.1 °F 71% 29.88 in 10.0 mi WSW 8.1 mph - N/A   Mostly Cloudy
12:52 PM 54.0 °F - 39.9 °F 59% 29.88 in 10.0 mi West 10.4 mph - N/A   Mostly Cloudy
1:52 PM 55.9 °F - 37.9 °F 51% 29.88 in 10.0 mi NW 9.2 mph - N/A   Mostly Cloudy
2:52 PM 55.0 °F - 36.0 °F 49% 29.88 in 10.0 mi West 13.8 mph - N/A   Mostly Cloudy
3:52 PM 54.0 °F - 37.0 °F 53% 29.90 in 10.0 mi WNW 13.8 mph - N/A   Scattered Clouds
4:52 PM 54.0 °F - 35.1 °F 49% 29.91 in 10.0 mi NW 16.1 mph 23.0 mph N/A   Scattered Clouds
5:52 PM 52.0 °F - 34.0 °F 50% 29.94 in 10.0 mi NW 17.3 mph 26.5 mph N/A   Scattered Clouds
7:52 PM 48.0 °F - 34.0 °F 58% 30.01 in 10.0 mi NW 11.5 mph - N/A   Scattered Clouds
8:52 PM 46.9 °F - 34.0 °F 61% 30.03 in 10.0 mi NW 11.5 mph - N/A   Partly Cloudy
9:52 PM 45.0 °F 39.7 °F 34.0 °F 65% 30.06 in 10.0 mi WNW 10.4 mph - N/A   Clear
10:52 PM 44.1 °F 38.6 °F 35.1 °F 71% 30.08 in 10.0 mi WNW 10.4 mph - N/A   Clear
11:52 PM 42.1 °F 37.1 °F 36.0 °F 79% 30.10 in 10.0 mi WNW 8.1 mph - N/A   Partly Cloudy